| time (UTC) | temp F | wind direction | speed MPH | gust MPH | rain 1hr in | rain 24hr in | rain mn in | humidity % | barometer mb |
| 20260903060500 | 54 | 166 | 2.0 | 4.0 | 0.00 | 0.54 | 0.54 | 93 | 1010.6 |
| 20260903060002 | 54 | 129 | 2.0 | 4.0 | 0.00 | 0.54 | 0.54 | 93 | 1010.5 |
| 20260903055458 | 54 | 150 | 1.0 | 5.0 | 0.00 | 0.54 | 0.54 | 92 | 1010.7 |
| 20260903055234 | 54 | 167 | 2.0 | 5.0 | 0.00 | 0.54 | 0.54 | 92 | 1010.4 |
| 20260903054456 | 54 | 157 | 3.0 | 5.0 | 0.00 | 0.54 | 0.54 | 92 | 1010.6 |
| 20260903053957 | 55 | 162 | 3.0 | 5.0 | 0.00 | 0.54 | 0.54 | 92 | 1010.6 |
| 20260903053452 | 55 | 187 | 3.0 | 6.0 | 0.00 | 0.54 | 0.54 | 92 | 1010.7 |
| 20260903052954 | 55 | 137 | 4.0 | 6.0 | 0.00 | 0.54 | 0.54 | 92 | 1010.7 |
| 20260903052935 | 55 | 155 | 4.0 | 6.0 | 0.00 | 0.54 | 0.54 | 92 | 1010.6 |
| 20260903051952 | 55 | 127 | 3.0 | 6.0 | 0.00 | 0.54 | 0.54 | 92 | 1010.7 |
| 20260903051452 | 55 | 140 | 2.0 | 5.0 | 0.00 | 0.54 | 0.54 | 93 | 1010.7 |
| 20260903050954 | 55 | 148 | 2.0 | 4.0 | 0.00 | 0.54 | 0.54 | 93 | 1010.6 |
| 20260903050448 | 54 | 144 | 2.0 | 4.0 | 0.00 | 0.54 | 0.54 | 93 | 1010.6 |
| 20260903045950 | 54 | 153 | 2.0 | 4.0 | 0.00 | 0.54 | 0.54 | 93 | 1010.7 |
| 20260903045449 | 54 | 137 | 2.0 | 4.0 | 0.00 | 0.54 | 0.54 | 93 | 1010.7 |
| 20260903044948 | 54 | 137 | 3.0 | 5.0 | 0.00 | 0.54 | 0.54 | 93 | 1010.6 |
| 20260903044446 | 54 | 129 | 3.0 | 5.0 | 0.00 | 0.54 | 0.54 | 92 | 1010.7 |
| 20260903043944 | 54 | 126 | 3.0 | 4.0 | 0.00 | 0.54 | 0.54 | 92 | 1010.7 |
| 20260903043444 | 55 | 129 | 3.0 | 4.0 | 0.00 | 0.54 | 0.54 | 92 | 1010.6 |
| 20260903042943 | 54 | 126 | 2.0 | 4.0 | 0.00 | 0.54 | 0.54 | 92 | 1010.6 |
| 20260903042705 | 54 | 128 | 2.0 | 4.0 | 0.00 | 0.54 | 0.54 | 92 | 1010.6 |
| 20260903041933 | 55 | 129 | 2.0 | 4.0 | 0.00 | 0.54 | 0.54 | 92 | 1010.5 |
| 20260903041658 | 55 | 141 | 2.0 | 5.0 | 0.00 | 0.54 | 0.54 | 92 | 1010.3 |
| 20260903040933 | 55 | 131 | 2.0 | 5.0 | 0.00 | 0.54 | 0.54 | 92 | 1010.2 |
| 20260903040430 | 55 | 141 | 3.0 | 4.0 | 0.00 | 0.54 | 0.54 | 91 | 1010.2 |
| 20260903035930 | 55 | 134 | 3.0 | 4.0 | 0.00 | 0.54 | 0.54 | 91 | 1010.1 |
| 20260903035426 | 55 | 152 | 3.0 | 4.0 | 0.00 | 0.54 | 0.54 | 91 | 1010.0 |
| 20260903034920 | 56 | 147 | 3.0 | 4.0 | 0.00 | 0.54 | 0.54 | 91 | 1010.0 |
| 20260903034422 | 55 | 145 | 2.0 | 4.0 | 0.00 | 0.54 | 0.54 | 91 | 1010.0 |
| 20260903033916 | 55 | 184 | 2.0 | 4.0 | 0.00 | 0.54 | 0.54 | 91 | 1010.0 |
| 20260903033410 | 56 | 201 | 2.0 | 4.0 | 0.00 | 0.54 | 0.54 | 91 | 1009.9 |
| 20260903032900 | 56 | 202 | 2.0 | 4.0 | 0.00 | 0.54 | 0.54 | 90 | 1009.8 |
| 20260903032400 | 56 | 210 | 2.0 | 4.0 | 0.00 | 0.54 | 0.54 | 90 | 1009.9 |
| 20260903031857 | 56 | 220 | 2.0 | 6.0 | 0.00 | 0.54 | 0.54 | 89 | 1009.8 |
| 20260903031356 | 57 | 165 | 3.0 | 6.0 | 0.00 | 0.54 | 0.54 | 89 | 1009.7 |
| 20260903030856 | 57 | 157 | 3.0 | 6.0 | 0.00 | 0.54 | 0.54 | 89 | 1009.7 |
| 20260903030354 | 57 | 152 | 3.0 | 6.0 | 0.00 | 0.54 | 0.54 | 89 | 1009.6 |
| 20260903025853 | 57 | 168 | 3.0 | 6.0 | 0.00 | 0.54 | 0.54 | 89 | 1009.6 |
| 20260903025352 | 58 | 153 | 3.0 | 5.0 | 0.00 | 0.54 | 0.54 | 89 | 1009.6 |
| 20260903024850 | 58 | 170 | 3.0 | 5.0 | 0.00 | 0.54 | 0.54 | 89 | 1009.6 |
| 20260903024352 | 58 | 180 | 3.0 | 4.0 | 0.00 | 0.54 | 0.54 | 89 | 1009.5 |
| 20260903023849 | 58 | 181 | 3.0 | 7.0 | 0.00 | 0.54 | 0.54 | 89 | 1009.5 |
| 20260903023349 | 59 | 208 | 3.0 | 7.0 | 0.00 | 0.54 | 0.54 | 88 | 1009.5 |
| 20260903022848 | 59 | 207 | 3.0 | 9.0 | 0.00 | 0.54 | 0.54 | 88 | 1009.4 |
| 20260903022347 | 59 | 153 | 4.0 | 9.0 | 0.00 | 0.54 | 0.54 | 87 | 1009.4 |
| 20260903021845 | 59 | 203 | 2.0 | 8.0 | 0.00 | 0.54 | 0.54 | 88 | 1009.3 |
| 20260903021347 | 60 | 184 | 1.0 | 7.0 | 0.00 | 0.54 | 0.54 | 87 | 1009.3 |
| 20260903021104 | 60 | 180 | 1.0 | 1.0 | 0.00 | 0.54 | 0.54 | 86 | 1009.2 |
| 20260903020340 | 60 | 230 | 1.0 | 1.0 | 0.00 | 0.54 | 0.54 | 87 | 1009.2 |
| 20260903015838 | 60 | 220 | 1.0 | 1.0 | 0.00 | 0.54 | 0.54 | 87 | 1009.1 |
| 20260903015338 | 60 | 153 | 1.0 | 1.0 | 0.00 | 0.54 | 0.54 | 86 | 1009.2 |
| 20260903014834 | 60 | 168 | 1.0 | 1.0 | 0.00 | 0.54 | 0.54 | 87 | 1009.1 |
| 20260903014334 | 60 | 249 | 1.0 | 1.0 | 0.00 | 0.54 | 0.54 | 88 | 1009.0 |
| 20260903013830 | 60 | 168 | 1.0 | 1.0 | 0.00 | 0.54 | 0.54 | 88 | 1009.1 |
| 20260903013322 | 60 | 231 | 0.0 | 1.0 | 0.00 | 0.54 | 0.54 | 88 | 1009.0 |
| 20260903012823 | 60 | 276 | 0.0 | 1.0 | 0.00 | 0.54 | 0.54 | 88 | 1008.9 |
| 20260903012322 | 60 | 286 | 0.0 | 1.0 | 0.00 | 0.54 | 0.54 | 86 | 1008.9 |
| 20260903011824 | 60 | 238 | 0.0 | 1.0 | 0.00 | 0.54 | 0.54 | 87 | 1008.9 |
| 20260903011320 | 60 | 232 | 1.0 | 1.0 | 0.01 | 0.54 | 0.54 | 89 | 1008.9 |
| 20260903010821 | 60 | 266 | 1.0 | 1.0 | 0.01 | 0.54 | 0.54 | 89 | 1008.9 |
| 20260903010312 | 60 | 277 | 1.0 | 1.0 | 0.02 | 0.54 | 0.54 | 89 | 1008.9 |
| 20260903005813 | 60 | 235 | 0.0 | 1.0 | 0.03 | 0.54 | 0.54 | 91 | 1008.9 |
| 20260903005309 | 59 | 286 | 0.0 | 1.0 | 0.05 | 0.54 | 0.54 | 91 | 1008.9 |
| 20260903004807 | 59 | 270 | 0.0 | 1.0 | 0.07 | 0.54 | 0.54 | 89 | 1009.0 |
| 20260903004306 | 59 | 244 | 0.0 | 1.0 | 0.09 | 0.54 | 0.54 | 90 | 1008.8 |
| 20260903003806 | 59 | 276 | 0.0 | 1.0 | 0.11 | 0.54 | 0.54 | 91 | 1008.7 |
| 20260903003305 | 59 | 255 | 0.0 | 1.0 | 0.17 | 0.54 | 0.54 | 92 | 1008.5 |
| 20260903002807 | 59 | 271 | 0.0 | 1.0 | 0.19 | 0.54 | 0.54 | 92 | 1008.6 |
| 20260903002306 | 60 | 198 | 1.0 | 1.0 | 0.22 | 0.54 | 0.54 | 94 | 1008.6 |
| 20260903002029 | 60 | 172 | 1.0 | 1.0 | 0.22 | 0.54 | 0.54 | 94 | 1008.4 |
| 20260903001259 | 60 | 160 | 1.0 | 1.0 | 0.21 | 0.53 | 0.54 | 94 | 1008.3 |
| 20260903000801 | 59 | 156 | 1.0 | 1.0 | 0.22 | 0.53 | 0.53 | 94 | 1008.5 |
| 20260903000519 | 59 | 222 | 1.0 | 1.0 | 0.21 | 0.52 | 0.52 | 94 | 1008.4 |
| 20260903000024 | 59 | 225 | 1.0 | 1.0 | 0.21 | 0.51 | 0.51 | 94 | 1008.3 |
| 20260902235259 | 59 | 215 | 1.0 | 1.0 | 0.19 | 0.49 | 0.49 | 94 | 1008.3 |
| 20260902234801 | 59 | 222 | 1.0 | 1.0 | 0.17 | 0.47 | 0.47 | 94 | 1008.2 |
| 20260902234257 | 59 | 231 | 1.0 | 1.0 | 0.15 | 0.45 | 0.45 | 94 | 1008.1 |
| 20260902233801 | 59 | 203 | 0.0 | 1.0 | 0.13 | 0.43 | 0.43 | 93 | 1008.1 |
| 20260902233300 | 59 | 158 | 0.0 | 1.0 | 0.07 | 0.37 | 0.38 | 93 | 1008.0 |
| 20260902232757 | 60 | 183 | 0.0 | 1.0 | 0.05 | 0.35 | 0.35 | 93 | 1007.9 |
| 20260902232257 | 60 | 179 | 0.0 | 1.0 | 0.02 | 0.32 | 0.32 | 93 | 1007.9 |
| 20260902232023 | 60 | 150 | 0.0 | 1.0 | 0.02 | 0.32 | 0.32 | 93 | 1007.7 |
| 20260902231252 | 60 | 172 | 0.0 | 1.0 | 0.02 | 0.31 | 0.31 | 92 | 1007.7 |
| 20260902230753 | 60 | 149 | 0.0 | 1.0 | 0.02 | 0.31 | 0.31 | 92 | 1007.7 |
| 20260902230252 | 60 | 173 | 0.0 | 1.0 | 0.02 | 0.31 | 0.31 | 92 | 1007.6 |
| 20260902230015 | 60 | 125 | 0.0 | 1.0 | 0.02 | 0.30 | 0.30 | 92 | 1007.5 |
| 20260902225249 | 60 | 112 | 0.0 | 1.0 | 0.03 | 0.30 | 0.30 | 92 | 1007.6 |
| 20260902224751 | 60 | 107 | 0.0 | 1.0 | 0.03 | 0.30 | 0.30 | 91 | 1007.5 |
| 20260902224249 | 60 | 139 | 0.0 | 1.0 | 0.03 | 0.30 | 0.30 | 91 | 1007.5 |
| 20260902223753 | 60 | 137 | 0.0 | 1.0 | 0.03 | 0.30 | 0.30 | 91 | 1007.5 |
| 20260902223247 | 60 | 130 | 0.0 | 1.0 | 0.03 | 0.30 | 0.30 | 91 | 1007.5 |
| 20260902222747 | 60 | 126 | 0.0 | 1.0 | 0.03 | 0.30 | 0.30 | 91 | 1007.4 |
| 20260902222246 | 60 | 139 | 0.0 | 1.0 | 0.05 | 0.30 | 0.30 | 90 | 1007.3 |
| 20260902222007 | 60 | 134 | 0.0 | 1.0 | 0.06 | 0.30 | 0.30 | 91 | 1007.3 |
| 20260902221244 | 60 | 183 | 0.0 | 1.0 | 0.06 | 0.29 | 0.29 | 91 | 1007.2 |
| 20260902220742 | 60 | 161 | 0.0 | 1.0 | 0.06 | 0.29 | 0.29 | 91 | 1007.2 |
| 20260902220234 | 60 | 149 | 0.0 | 1.0 | 0.06 | 0.29 | 0.29 | 91 | 1007.1 |
| 20260902215955 | 60 | 109 | 0.0 | 1.0 | 0.05 | 0.28 | 0.29 | 91 | 1007.1 |
| 20260902215236 | 60 | 112 | 0.0 | 1.0 | 0.04 | 0.27 | 0.27 | 91 | 1007.3 |
| 20260902214731 | 60 | 143 | 0.0 | 1.0 | 0.04 | 0.27 | 0.27 | 91 | 1007.2 |
| 20260902214230 | 59 | 168 | 0.0 | 1.0 | 0.04 | 0.27 | 0.27 | 91 | 1007.1 |
| 20260902213949 | 59 | 118 | 0.0 | 1.0 | 0.04 | 0.27 | 0.27 | 91 | 1007.2 |
| 20260902213448 | 59 | 114 | 0.0 | 1.0 | 0.05 | 0.27 | 0.27 | 91 | 1007.2 |
| 20260902212725 | 59 | 117 | 0.0 | 1.0 | 0.05 | 0.27 | 0.27 | 90 | 1007.2 |
| 20260902212223 | 60 | 113 | 2.0 | 13.0 | 0.03 | 0.25 | 0.26 | 90 | 1007.1 |
| 20260902212210 | 60 | 114 | 6.0 | 15.0 | 0.02 | 0.24 | 0.24 | 90 | 1007.1 |
| 20260902211217 | 60 | 108 | 8.0 | 17.0 | 0.01 | 0.23 | 0.23 | 89 | 1007.1 |
| 20260902210717 | 60 | 147 | 9.0 | 17.0 | 0.01 | 0.23 | 0.23 | 89 | 1007.1 |
| 20260902210444 | 60 | 135 | 9.0 | 16.0 | 0.01 | 0.23 | 0.23 | 88 | 1007.0 |
| 20260902205719 | 60 | 116 | 8.0 | 15.0 | 0.01 | 0.23 | 0.23 | 89 | 1007.0 |
| 20260902205213 | 60 | 139 | 8.0 | 14.0 | 0.01 | 0.23 | 0.23 | 89 | 1007.0 |
| 20260902204934 | 60 | 150 | 7.0 | 15.0 | 0.01 | 0.23 | 0.23 | 89 | 1006.9 |
| 20260902204213 | 60 | 125 | 8.0 | 16.0 | 0.01 | 0.23 | 0.23 | 89 | 1006.9 |
| 20260902203713 | 60 | 121 | 9.0 | 16.0 | 0.01 | 0.23 | 0.23 | 89 | 1006.9 |
| 20260902203210 | 60 | 147 | 9.0 | 14.0 | 0.00 | 0.22 | 0.22 | 88 | 1006.9 |
| 20260902202711 | 60 | 133 | 9.0 | 14.0 | 0.00 | 0.22 | 0.22 | 89 | 1006.9 |
| 20260902202210 | 60 | 118 | 9.0 | 17.0 | 0.00 | 0.22 | 0.22 | 88 | 1006.9 |
| 20260902201709 | 60 | 112 | 10.0 | 17.0 | 0.00 | 0.22 | 0.22 | 88 | 1006.8 |
| 20260902201208 | 60 | 122 | 9.0 | 16.0 | 0.00 | 0.22 | 0.22 | 88 | 1006.7 |
| 20260902200711 | 60 | 112 | 9.0 | 18.0 | 0.00 | 0.22 | 0.22 | 88 | 1006.7 |
| 20260902200207 | 60 | 139 | 9.0 | 19.0 | 0.01 | 0.22 | 0.22 | 87 | 1006.8 |
| 20260902200158 | 60 | 150 | 8.0 | 19.0 | 0.01 | 0.22 | 0.22 | 88 | 1006.6 |
| 20260902195205 | 60 | 120 | 4.0 | 16.0 | 0.01 | 0.22 | 0.22 | 88 | 1006.7 |
| 20260902194705 | 60 | 111 | 0.0 | 9.0 | 0.01 | 0.22 | 0.22 | 88 | 1006.7 |
| 20260902194203 | 60 | 158 | 0.0 | 1.0 | 0.01 | 0.22 | 0.22 | 88 | 1006.6 |
| 20260902193705 | 60 | 134 | 0.0 | 1.0 | 0.02 | 0.22 | 0.22 | 88 | 1006.6 |
| 20260902193206 | 60 | 146 | 0.0 | 1.0 | 0.02 | 0.22 | 0.22 | 88 | 1006.6 |
| 20260902192702 | 60 | 146 | 0.0 | 1.0 | 0.02 | 0.22 | 0.22 | 88 | 1006.7 |
| 20260902192420 | 60 | 123 | 0.0 | 1.0 | 0.02 | 0.22 | 0.22 | 88 | 1006.7 |
| 20260902191702 | 60 | 102 | 0.0 | 1.0 | 0.02 | 0.22 | 0.22 | 89 | 1006.6 |
| 20260902191200 | 59 | 114 | 0.0 | 1.0 | 0.02 | 0.22 | 0.22 | 89 | 1006.6 |
| 20260902190658 | 59 | 152 | 0.0 | 1.0 | 0.02 | 0.22 | 0.22 | 90 | 1006.6 |
| 20260902190423 | 59 | 115 | 1.0 | 1.0 | 0.02 | 0.21 | 0.21 | 90 | 1006.6 |
| 20260902185700 | 59 | 111 | 1.0 | 1.0 | 0.02 | 0.21 | 0.21 | 90 | 1006.6 |
| 20260902185159 | 59 | 113 | 1.0 | 1.0 | 0.02 | 0.21 | 0.21 | 91 | 1006.7 |
| 20260902184658 | 59 | 97 | 1.0 | 1.0 | 0.02 | 0.21 | 0.21 | 91 | 1006.7 |
| 20260902184158 | 59 | 114 | 1.0 | 1.0 | 0.02 | 0.21 | 0.21 | 90 | 1006.5 |
| 20260902183659 | 59 | 127 | 1.0 | 1.0 | 0.01 | 0.20 | 0.20 | 91 | 1006.6 |
| 20260902183419 | 59 | 118 | 1.0 | 1.0 | 0.02 | 0.20 | 0.20 | 90 | 1006.8 |
| 20260902182656 | 59 | 151 | 0.0 | 1.0 | 0.04 | 0.20 | 0.20 | 90 | 1006.8 |
| 20260902182152 | 59 | 106 | 0.0 | 1.0 | 0.05 | 0.20 | 0.20 | 90 | 1006.7 |
| 20260902181652 | 59 | 111 | 1.0 | 1.0 | 0.06 | 0.20 | 0.20 | 90 | 1006.7 |
| 20260902181155 | 59 | 137 | 1.0 | 1.0 | 0.09 | 0.20 | 0.20 | 90 | 1006.7 |
| 20260902180654 | 59 | 116 | 1.0 | 1.0 | 0.11 | 0.20 | 0.20 | 90 | 1006.9 |
| 20260902180153 | 59 | 101 | 1.0 | 1.0 | 0.12 | 0.19 | 0.19 | 90 | 1006.8 |
| 20260902175650 | 58 | 118 | 1.0 | 1.0 | 0.14 | 0.19 | 0.19 | 89 | 1006.8 |
| 20260902175150 | 58 | 79 | 1.0 | 1.0 | 0.15 | 0.19 | 0.19 | 90 | 1006.8 |
| 20260902174912 | 58 | 114 | 1.0 | 1.0 | 0.15 | 0.19 | 0.19 | 90 | 1006.7 |
| 20260902174411 | 58 | 104 | 1.0 | 6.0 | 0.15 | 0.19 | 0.19 | 91 | 1006.7 |
| 20260902173647 | 58 | 96 | 2.0 | 6.0 | 0.15 | 0.19 | 0.19 | 90 | 1006.9 |
| 20260902173133 | 58 | 86 | 1.0 | 5.0 | 0.14 | 0.18 | 0.18 | 90 | 1007.1 |
| 20260902172622 | 58 | 110 | 3.0 | 7.0 | 0.12 | 0.16 | 0.16 | 89 | 1007.0 |
| 20260902172112 | 58 | 139 | 2.0 | 7.0 | 0.11 | 0.15 | 0.15 | 89 | 1006.9 |
| 20260902171603 | 58 | 119 | 1.0 | 5.0 | 0.10 | 0.13 | 0.14 | 89 | 1006.9 |
| 20260902171101 | 58 | 190 | 2.0 | 8.0 | 0.08 | 0.11 | 0.11 | 88 | 1007.0 |
| 20260902170601 | 58 | 152 | 3.0 | 8.0 | 0.05 | 0.08 | 0.08 | 88 | 1007.1 |
| 20260902170318 | 58 | 224 | 3.0 | 7.0 | 0.03 | 0.06 | 0.07 | 88 | 1007.0 |
| 20260902165558 | 58 | 205 | 3.0 | 6.0 | 0.03 | 0.05 | 0.05 | 87 | 1006.9 |
| 20260902165056 | 58 | 182 | 4.0 | 7.0 | 0.03 | 0.04 | 0.04 | 87 | 1006.8 |
| 20260902164554 | 59 | 208 | 4.0 | 8.0 | 0.04 | 0.04 | 0.04 | 86 | 1006.7 |
| 20260902164045 | 59 | 160 | 4.0 | 8.0 | 0.04 | 0.04 | 0.04 | 85 | 1006.7 |
| 20260902163543 | 59 | 149 | 3.0 | 7.0 | 0.04 | 0.04 | 0.04 | 85 | 1006.7 |
| 20260902163042 | 59 | 158 | 3.0 | 6.0 | 0.04 | 0.04 | 0.04 | 85 | 1006.6 |
| 20260902162542 | 59 | 137 | 5.0 | 13.0 | 0.04 | 0.04 | 0.04 | 84 | 1006.6 |
| 20260902162307 | 59 | 133 | 5.0 | 13.0 | 0.04 | 0.04 | 0.04 | 83 | 1006.6 |
| 20260902161539 | 59 | 154 | 4.0 | 9.0 | 0.03 | 0.03 | 0.03 | 85 | 1006.7 |
| 20260902161039 | 58 | 189 | 4.0 | 11.0 | 0.03 | 0.03 | 0.03 | 84 | 1006.7 |
| 20260902160759 | 59 | 149 | 5.0 | 11.0 | 0.03 | 0.03 | 0.03 | 83 | 1006.7 |
| 20260902160037 | 59 | 165 | 4.0 | 8.0 | 0.03 | 0.03 | 0.03 | 84 | 1006.8 |
| 20260902155537 | 59 | 149 | 3.0 | 7.0 | 0.02 | 0.02 | 0.02 | 82 | 1006.8 |
| 20260902155036 | 59 | 235 | 3.0 | 6.0 | 0.01 | 0.01 | 0.01 | 81 | 1007.0 |
| 20260902154535 | 60 | 191 | 4.0 | 7.0 | 0.00 | 0.00 | 0.00 | 79 | 1006.9 |
| 20260902154034 | 60 | 224 | 3.0 | 7.0 | 0.00 | 0.00 | 0.00 | 78 | 1006.9 |
| 20260902153534 | 60 | 201 | 3.0 | 9.0 | 0.00 | 0.00 | 0.00 | 78 | 1006.9 |
| 20260902153035 | 60 | 232 | 2.0 | 9.0 | 0.00 | 0.00 | 0.00 | 78 | 1006.8 |
| 20260902152535 | 60 | 186 | 2.0 | 4.0 | 0.00 | 0.00 | 0.00 | 79 | 1006.9 |
| 20260902152032 | 60 | 231 | 1.0 | 3.0 | 0.00 | 0.00 | 0.00 | 80 | 1006.9 |
| 20260902151533 | 60 | 131 | 1.0 | 3.0 | 0.00 | 0.00 | 0.00 | 79 | 1006.9 |
| 20260902151033 | 60 | 131 | 1.0 | 2.0 | 0.00 | 0.00 | 0.00 | 78 | 1006.9 |
| 20260902150529 | 60 | 131 | 0.0 | 2.0 | 0.00 | 0.00 | 0.00 | 80 | 1006.8 |
| 20260902150032 | 60 | 131 | 1.0 | 3.0 | 0.00 | 0.00 | 0.00 | 78 | 1006.9 |
| 20260902145529 | 60 | 131 | 2.0 | 4.0 | 0.00 | 0.00 | 0.00 | 76 | 1006.9 |
| 20260902145025 | 60 | 161 | 2.0 | 4.0 | 0.00 | 0.00 | 0.00 | 77 | 1006.9 |
| 20260902144529 | 59 | 160 | 1.0 | 4.0 | 0.00 | 0.00 | 0.00 | 79 | 1007.0 |
| 20260902144501 | 59 | 158 | 1.0 | 3.0 | 0.00 | 0.00 | 0.00 | 81 | 1007.0 |
| 20260902143505 | 59 | 158 | 2.0 | 3.0 | 0.00 | 0.00 | 0.00 | 80 | 1007.1 |
| 20260902143004 | 59 | 158 | 2.0 | 4.0 | 0.00 | 0.00 | 0.00 | 80 | 1007.2 |
| 20260902142504 | 59 | 154 | 2.0 | 4.0 | 0.00 | 0.00 | 0.00 | 81 | 1007.2 |
| 20260902141956 | 59 | 139 | 2.0 | 4.0 | 0.00 | 0.00 | 0.00 | 80 | 1007.3 |
| 20260902141446 | 59 | 135 | 2.0 | 4.0 | 0.00 | 0.00 | 0.00 | 80 | 1007.3 |
| 20260902140950 | 59 | 133 | 3.0 | 5.0 | 0.00 | 0.00 | 0.00 | 79 | 1007.5 |
| 20260902140446 | 59 | 139 | 3.0 | 5.0 | 0.00 | 0.00 | 0.00 | 80 | 1007.4 |
| 20260902135945 | 59 | 134 | 3.0 | 5.0 | 0.00 | 0.00 | 0.00 | 81 | 1007.4 |
| 20260902135447 | 59 | 134 | 2.0 | 4.0 | 0.00 | 0.00 | 0.00 | 81 | 1007.4 |
| 20260902135206 | 59 | 133 | 2.0 | 4.0 | 0.00 | 0.00 | 0.00 | 82 | 1007.5 |
| 20260902134430 | 59 | 143 | 2.0 | 4.0 | 0.00 | 0.00 | 0.00 | 83 | 1007.6 |
| 20260902133921 | 58 | 130 | 1.0 | 4.0 | 0.00 | 0.00 | 0.00 | 84 | 1007.5 |
| 20260902133423 | 58 | 131 | 1.0 | 4.0 | 0.00 | 0.00 | 0.00 | 85 | 1007.6 |
| 20260902132918 | 58 | 106 | 0.0 | 3.0 | 0.00 | 0.00 | 0.00 | 87 | 1007.7 |
| 20260902132418 | 57 | 129 | 0.0 | 2.0 | 0.00 | 0.00 | 0.00 | 88 | 1007.8 |
| 20260902131914 | 58 | 129 | 2.0 | 4.0 | 0.00 | 0.00 | 0.00 | 86 | 1007.8 |
| 20260902131407 | 58 | 129 | 3.0 | 5.0 | 0.00 | 0.00 | 0.00 | 86 | 1007.9 |
| 20260902130903 | 57 | 147 | 2.0 | 5.0 | 0.00 | 0.00 | 0.00 | 88 | 1007.9 |
| 20260902130402 | 57 | 143 | 1.0 | 3.0 | 0.00 | 0.00 | 0.00 | 90 | 1008.0 |
| 20260902125900 | 57 | 143 | 0.0 | 2.0 | 0.00 | 0.00 | 0.00 | 90 | 1008.1 |
| 20260902125622 | 57 | 143 | 0.0 | 0.0 | 0.00 | 0.00 | 0.00 | 90 | 1008.2 |
| 20260902124900 | 57 | 143 | 0.0 | 1.0 | 0.00 | 0.00 | 0.00 | 90 | 1008.2 |
| 20260902124352 | 57 | 143 | 0.0 | 1.0 | 0.00 | 0.00 | 0.00 | 90 | 1008.2 |
| 20260902123853 | 57 | 143 | 0.0 | 1.0 | 0.00 | 0.00 | 0.00 | 90 | 1008.3 |
| 20260902123832 | 57 | 143 | 0.0 | 2.0 | 0.00 | 0.00 | 0.00 | 90 | 1008.4 |
| 20260902122832 | 57 | 143 | 0.0 | 2.0 | 0.00 | 0.00 | 0.00 | 90 | 1008.4 |
| 20260902122324 | 57 | 143 | 0.0 | 1.0 | 0.00 | 0.00 | 0.00 | 90 | 1008.5 |
| 20260902122313 | 57 | 143 | 0.0 | 1.0 | 0.00 | 0.00 | 0.00 | 90 | 1008.5 |
| 20260902121317 | 57 | 143 | 0.0 | 1.0 | 0.00 | 0.00 | 0.00 | 90 | 1008.6 |
| 20260902121302 | 57 | 143 | 0.0 | 1.0 | 0.00 | 0.00 | 0.00 | 90 | 1008.7 |
| 20260902120305 | 57 | 143 | 0.0 | 2.0 | 0.00 | 0.00 | 0.00 | 90 | 1008.7 |
| 20260902115748 | 57 | 143 | 1.0 | 2.0 | 0.00 | 0.00 | 0.00 | 90 | 1008.8 |
| 20260902115236 | 57 | 143 | 0.0 | 2.0 | 0.00 | 0.00 | 0.00 | 91 | 1008.9 |
| 20260902114734 | 57 | 143 | 0.0 | 0.0 | 0.00 | 0.00 | 0.00 | 91 | 1009.0 |
| 20260902114231 | 57 | 143 | 0.0 | 0.0 | 0.00 | 0.00 | 0.00 | 91 | 1008.9 |
| 20260902113731 | 57 | 143 | 0.0 | 0.0 | 0.00 | 0.00 | 0.00 | 91 | 1009.0 |
| 20260902113217 | 57 | 143 | 0.0 | 0.0 | 0.00 | 0.00 | 0.00 | 91 | 1009.0 |
| 20260902112708 | 57 | 143 | 0.0 | 0.0 | 0.00 | 0.00 | 0.00 | 91 | 1009.1 |
| 20260902112201 | 57 | 143 | 0.0 | 0.0 | 0.00 | 0.00 | 0.00 | 93 | 1009.1 |
| 20260902111912 | 57 | 143 | 0.0 | 0.0 | 0.00 | 0.00 | 0.00 | 93 | 1009.1 |
| 20260902111142 | 57 | 143 | 0.0 | 0.0 | 0.00 | 0.00 | 0.00 | 93 | 1009.1 |
| 20260902110642 | 56 | 143 | 0.0 | 0.0 | 0.00 | 0.00 | 0.00 | 93 | 1009.3 |
| 20260902110142 | 57 | 143 | 0.0 | 0.0 | 0.00 | 0.00 | 0.00 | 92 | 1009.4 |
| 20260902105627 | 57 | 143 | 0.0 | 0.0 | 0.00 | 0.00 | 0.00 | 91 | 1009.4 |
| 20260902105107 | 56 | 143 | 0.0 | 0.0 | 0.00 | 0.00 | 0.00 | 91 | 1009.5 |
| 20260902104603 | 56 | 143 | 0.0 | 0.0 | 0.00 | 0.00 | 0.00 | 91 | 1009.6 |
| 20260902104315 | 56 | 143 | 0.0 | 0.0 | 0.00 | 0.00 | 0.00 | 91 | 1009.7 |
| 20260902103539 | 56 | 143 | 0.0 | 0.0 | 0.00 | 0.00 | 0.00 | 90 | 1009.6 |
| 20260902103255 | 56 | 143 | 0.0 | 0.0 | 0.00 | 0.00 | 0.00 | 90 | 1009.7 |
| 20260902102531 | 56 | 143 | 0.0 | 0.0 | 0.00 | 0.00 | 0.00 | 90 | 1009.8 |
| 20260902102020 | 56 | 143 | 0.0 | 0.0 | 0.00 | 0.00 | 0.00 | 91 | 1009.8 |
| 20260902101519 | 56 | 143 | 0.0 | 0.0 | 0.00 | 0.00 | 0.00 | 90 | 1009.9 |
| 20260902101017 | 56 | 143 | 0.0 | 0.0 | 0.00 | 0.00 | 0.00 | 90 | 1009.8 |
| 20260902100515 | 56 | 143 | 0.0 | 0.0 | 0.00 | 0.00 | 0.00 | 90 | 1009.9 |
| 20260902100006 | 56 | 143 | 0.0 | 0.0 | 0.00 | 0.00 | 0.00 | 89 | 1009.9 |
| 20260902095503 | 56 | 143 | 0.0 | 2.0 | 0.00 | 0.00 | 0.00 | 89 | 1009.9 |
| 20260902095006 | 56 | 143 | 1.0 | 2.0 | 0.00 | 0.00 | 0.00 | 88 | 1010.0 |
| 20260902094454 | 56 | 143 | 1.0 | 2.0 | 0.00 | 0.00 | 0.00 | 88 | 1010.1 |
| 20260902093952 | 56 | 143 | 1.0 | 2.0 | 0.00 | 0.00 | 0.00 | 88 | 1010.2 |
| 20260902093450 | 56 | 143 | 1.0 | 3.0 | 0.00 | 0.00 | 0.00 | 89 | 1010.3 |
| 20260902092950 | 56 | 143 | 1.0 | 3.0 | 0.00 | 0.00 | 0.00 | 89 | 1010.4 |
| 20260902092447 | 56 | 143 | 1.0 | 3.0 | 0.00 | 0.00 | 0.00 | 90 | 1010.5 |
| 20260902091942 | 56 | 143 | 1.0 | 3.0 | 0.00 | 0.00 | 0.00 | 89 | 1010.6 |
| 20260902091442 | 56 | 143 | 1.0 | 2.0 | 0.00 | 0.00 | 0.00 | 89 | 1010.6 |
| 20260902090946 | 56 | 143 | 1.0 | 2.0 | 0.00 | 0.00 | 0.00 | 89 | 1010.6 |
| 20260902090651 | 56 | 143 | 1.0 | 3.0 | 0.00 | 0.00 | 0.00 | 89 | 1010.6 |
| 20260902085926 | 56 | 143 | 2.0 | 3.0 | 0.00 | 0.00 | 0.00 | 90 | 1010.6 |
| 20260902085427 | 56 | 143 | 1.0 | 3.0 | 0.00 | 0.00 | 0.00 | 90 | 1010.7 |
| 20260902085410 | 56 | 143 | 1.0 | 3.0 | 0.00 | 0.00 | 0.00 | 90 | 1010.7 |
| 20260902084419 | 55 | 143 | 1.0 | 2.0 | 0.00 | 0.00 | 0.00 | 89 | 1010.8 |
| 20260902084141 | 55 | 143 | 2.0 | 4.0 | 0.00 | 0.00 | 0.00 | 90 | 1010.8 |
| 20260902083418 | 55 | 143 | 2.0 | 4.0 | 0.00 | 0.00 | 0.00 | 90 | 1010.8 |
| 20260902082917 | 55 | 143 | 1.0 | 3.0 | 0.00 | 0.00 | 0.00 | 90 | 1010.9 |
| 20260902082412 | 54 | 143 | 1.0 | 3.0 | 0.00 | 0.00 | 0.00 | 91 | 1010.9 |
| 20260902081906 | 54 | 143 | 0.0 | 2.0 | 0.00 | 0.00 | 0.00 | 92 | 1010.9 |
| 20260902081355 | 53 | 143 | 1.0 | 3.0 | 0.00 | 0.00 | 0.00 | 92 | 1010.8 |
| 20260902080836 | 53 | 143 | 0.0 | 3.0 | 0.00 | 0.00 | 0.00 | 91 | 1010.9 |
| 20260902080338 | 54 | 143 | 0.0 | 1.0 | 0.00 | 0.00 | 0.00 | 91 | 1010.9 |
| 20260902080049 | 54 | 143 | 0.0 | 2.0 | 0.00 | 0.00 | 0.00 | 90 | 1010.9 |
| 20260902075327 | 54 | 143 | 1.0 | 3.0 | 0.00 | 0.00 | 0.00 | 89 | 1010.9 |
| 20260902074814 | 55 | 143 | 1.0 | 3.0 | 0.00 | 0.00 | 0.00 | 90 | 1010.9 |
| 20260902074534 | 55 | 136 | 0.0 | 3.0 | 0.00 | 0.00 | 0.00 | 89 | 1010.9 |
| 20260902073814 | 55 | 262 | 0.0 | 0.0 | 0.00 | 0.00 | 0.00 | 90 | 1010.9 |
| 20260902073311 | 55 | 263 | 0.0 | 0.0 | 0.00 | 0.00 | 0.00 | 90 | 1011.0 |
| 20260902072753 | 55 | 262 | 0.0 | 0.0 | 0.00 | 0.00 | 0.00 | 90 | 1011.0 |
| 20260902072254 | 55 | 262 | 0.0 | 0.0 | 0.00 | 0.00 | 0.00 | 90 | 1011.1 |
| 20260902071741 | 55 | 262 | 0.0 | 0.0 | 0.00 | 0.00 | 0.00 | 90 | 1011.1 |
| 20260902071238 | 55 | 263 | 0.0 | 0.0 | 0.00 | 0.00 | 0.00 | 90 | 1011.2 |
| 20260902070738 | 55 | 263 | 0.0 | 0.0 | 0.00 | 0.00 | 0.00 | 89 | 1011.2 |
| 20260902070234 | 56 | 263 | 0.0 | 0.0 | 0.00 | 0.00 | 0.00 | 88 | 1011.2 |
| 20260902065732 | 57 | 262 | 0.0 | 0.0 | 0.00 | 0.00 | 0.00 | 87 | 1011.2 |
| 20260902065225 | 57 | 262 | 0.0 | 0.0 | 0.00 | 0.00 | 0.00 | 87 | 1011.2 |
| 20260902064717 | 57 | 263 | 0.0 | 0.0 | 0.00 | 0.00 | 0.00 | 87 | 1011.2 |
| 20260902064211 | 57 | 263 | 0.0 | 0.0 | 0.00 | 0.00 | 0.00 | 86 | 1011.2 |
| 20260902063702 | 58 | 262 | 0.0 | 0.0 | 0.00 | 0.00 | 0.00 | 86 | 1011.2 |
| 20260902063154 | 58 | 262 | 0.0 | 0.0 | 0.00 | 0.00 | 0.00 | 85 | 1011.3 |
| 20260902062655 | 59 | 263 | 0.0 | 0.0 | 0.00 | 0.00 | 0.00 | 84 | 1011.4 |
| 20260902062407 | 59 | 263 | 0.0 | 0.0 | 0.00 | 0.00 | 0.00 | 84 | 1011.4 |
| 20260902061633 | 59 | 263 | 0.0 | 0.0 | 0.00 | 0.00 | 0.00 | 84 | 1011.5 |
| 20260902061533 | 60 | 263 | 0.0 | 0.0 | 0.00 | 0.00 | 0.00 | 83 | 1011.5 |
| 20260902061156 | 59 | 263 | 0.0 | 0.0 | 0.00 | 0.00 | 0.00 | 83 | 1011.5 |